AZSOONER Weather Reports


time (UTC)temp
C
wind
direction
speed
KPH
gust
KPH
rain 1hr
cm
rain 24hr
cm
rain mn
cm
humidity
%
barometer
mb
20260502161557 27 360 14.5 27.4 0.00 0.00 0.00 29 1013.9
20260502151538 25 360 16.1 27.4 0.00 0.00 0.00 34 1013.6
20260502130103 17 360 0.0 6.4 0.00 0.00 0.00 36 1012.4
20260502123108 16 360 1.6 4.8 0.00 0.00 0.00 40 1011.9
20260502121538 16 360 0.0 4.8 0.00 0.00 0.00 39 1011.7
20260502114545 16 0 0.0 4.8 0.00 0.00 0.00 38 1011.5
20260502113039 16 360 3.2 6.4 0.00 0.00 0.00 39 1011.4
20260502111539 16 360 1.6 4.8 0.00 0.00 0.00 41 1011.4
20260502110046 16 360 0.0 4.8 0.00 0.00 0.00 40 1011.5
20260502104534 16 360 1.6 4.8 0.00 0.00 0.00 43 1011.5
20260502103039 16 0 0.0 9.7 0.00 0.00 0.00 42 1011.4
20260502101549 16 360 4.8 8.0 0.00 0.00 0.00 39 1011.1
20260502070036 21 360 1.6 4.8 0.00 0.00 0.00 26 1010.3
20260502064535 21 360 1.6 4.8 0.00 0.00 0.00 26 1010.3
20260502063053 21 360 1.6 4.8 0.00 0.00 0.00 28 1010.3
20260502061539 21 0 1.6 6.4 0.00 0.00 0.00 27 1010.2
20260502060040 22 360 3.2 6.4 0.00 0.00 0.00 24 1010.2
20260502054539 22 360 3.2 9.7 0.00 0.00 0.00 26 1010.1
20260502053040 20 360 6.4 9.7 0.00 0.00 0.00 31 1010.1
20260502051535 21 360 3.2 8.0 0.00 0.00 0.00 32 1010.0
20260502050039 22 360 1.6 4.8 0.00 0.00 0.00 28 1009.9
20260502044542 22 360 1.6 4.8 0.00 0.00 0.00 27 1009.8
20260502043040 23 360 1.6 4.8 0.00 0.00 0.00 29 1009.8
20260502041545 23 360 1.6 8.0 0.00 0.00 0.00 27 1009.6
20260502040034 25 360 1.6 4.8 0.00 0.00 0.00 22 1009.4
20260502034540 26 360 1.6 3.2 0.00 0.00 0.00 20 1009.2
20260502033045 26 360 0.0 4.8 0.00 0.00 0.00 19 1009.1
20260502031539 27 360 1.6 4.8 0.00 0.00 0.00 18 1009.0
20260502030038 27 360 3.2 8.0 0.00 0.00 0.00 18 1008.7
20260502024536 27 360 3.2 6.4 0.00 0.00 0.00 19 1008.6
20260502023039 28 360 1.6 4.8 0.00 0.00 0.00 17 1008.5
20260502021540 28 0 1.6 8.0 0.00 0.00 0.00 16 1008.4
20260502020039 29 286 4.8 11.3 0.00 0.00 0.00 16 1008.3
20260502014539 30 265 4.8 11.3 0.00 0.00 0.00 17 1008.2
20260502013036 30 273 4.8 16.1 0.00 0.00 0.00 16 1008.1
20260502011533 31 275 6.4 16.1 0.00 0.00 0.00 17 1008.1
20260502010050 31 231 6.4 16.1 0.00 0.00 0.00 17 1008.1
20260502004553 31 306 6.4 20.9 0.00 0.00 0.00 15 1008.1
20260502003038 31 259 8.0 19.3 0.00 0.00 0.00 17 1008.1
20260502001537 31 290 9.7 20.9 0.00 0.00 0.00 18 1008.1
20260502000038 31 236 6.4 17.7 0.00 0.00 0.00 18 1008.2
20260501234534 31 293 6.4 22.5 0.00 0.00 0.00 17 1008.2
20260501233044 31 360 11.3 24.1 0.00 0.00 0.00 17 1008.3
20260501231540 31 360 6.4 20.9 0.00 0.00 0.00 18 1008.3
20260501230038 31 360 6.4 17.7 0.00 0.00 0.00 18 1008.3
20260501224543 31 360 8.0 25.7 0.00 0.00 0.00 19 1008.6
20260501223034 31 360 8.0 20.9 0.00 0.00 0.00 18 1008.7
20260501221539 31 360 11.3 20.9 0.00 0.00 0.00 17 1008.9
20260501220048 31 360 11.3 24.1 0.00 0.00 0.00 19 1009.1
20260501214539 30 360 9.7 25.7 0.00 0.00 0.00 16 1009.3
20260501213047 31 360 12.9 20.9 0.00 0.00 0.00 19 1009.4
20260501211536 30 360 11.3 22.5 0.00 0.00 0.00 20 1009.7
20260501210043 30 360 11.3 24.1 0.00 0.00 0.00 21 1009.9
20260501204542 30 360 6.4 19.3 0.00 0.00 0.00 20 1010.0
20260501203040 30 360 3.2 19.3 0.00 0.00 0.00 21 1010.1
20260501201539 30 360 9.7 17.7 0.00 0.00 0.00 21 1010.3
20260501200034 29 360 3.2 17.7 0.00 0.00 0.00 22 1010.5
20260501194538 28 360 1.6 8.0 0.00 0.00 0.00 25 1010.7
20260501193039 28 360 3.2 14.5 0.00 0.00 0.00 25 1011.0
20260501191540 27 360 0.0 8.0 0.00 0.00 0.00 26 1011.3
20260501190046 28 360 6.4 14.5 0.00 0.00 0.00 25 1011.5
20260501184539 27 360 3.2 16.1 0.00 0.00 0.00 26 1011.6
20260501183033 27 0 4.8 14.5 0.00 0.00 0.00 26 1011.9
20260501181543 26 360 4.8 17.7 0.00 0.00 0.00 27 1012.1
20260501180050 27 360 4.8 14.5 0.00 0.00 0.00 27 1012.2
20260501174542 26 360 3.2 16.1 0.00 0.00 0.00 29 1012.3
20260501173038 26 360 8.0 17.7 0.00 0.00 0.00 28 1012.4
20260501171535 26 360 6.4 14.5 0.00 0.00 0.00 31 1012.4
20260501170050 25 360 9.7 17.7 0.00 0.00 0.00 33 1012.4
20260501164537 25 360 3.2 9.7 0.00 0.00 0.00 32 1012.5
20260501163038 24 360 1.6 9.7 0.00 0.00 0.00 35 1012.6